Heubes-Wetterstation in 44289 Dortmund
Heubes-Wetterstation

Messwerte der letzten 60 Minuten im Minuten-Intervall (Wetterstation 44289 Dortmund)

Datum & Uhrzeit Temp. Feucht. Wind-Ø Böen Sekt.  Regen Rate Luftdruck
20.07.2019 - 17:4719.6 °C92%0 km/h 0 km/h NO0.0 mm 0.0 mm 1011.6 hPa, langsam steigend
20.07.2019 - 17:4619.6 °C92%0 km/h 0 km/h NO0.0 mm 0.0 mm 1011.5 hPa, langsam steigend
20.07.2019 - 17:4519.6 °C92%0 km/h 0 km/h NO0.0 mm 0.0 mm 1011.4 hPa, langsam steigend
20.07.2019 - 17:4419.6 °C92%0 km/h 0 km/h NO0.0 mm 0.0 mm 1011.2 hPa, gleichbleibend
20.07.2019 - 17:4319.6 °C92%0 km/h 0 km/h NO0.0 mm 0.0 mm 1011.2 hPa, gleichbleibend
20.07.2019 - 17:4219.6 °C92%0 km/h 0 km/h NO0.0 mm 0.0 mm 1011.2 hPa, gleichbleibend
20.07.2019 - 17:4119.7 °C92%0 km/h 0 km/h N-NO0.0 mm 0.0 mm 1011.2 hPa, gleichbleibend
20.07.2019 - 17:4019.7 °C92%0 km/h 0 km/h N0.0 mm 0.0 mm 1011.3 hPa, langsam fallend
20.07.2019 - 17:3919.7 °C91%0 km/h 0 km/h NW0.0 mm 0.0 mm 1011.4 hPa, langsam fallend
20.07.2019 - 17:3819.8 °C91%1 km/h 5 km/h NW0.0 mm 0.0 mm 1011.5 hPa, gleichbleibend
20.07.2019 - 17:3719.8 °C91%1 km/h 0 km/h NW0.0 mm 0.0 mm 1011.5 hPa, langsam steigend
20.07.2019 - 17:3619.9 °C91%1 km/h 0 km/h W-NW0.0 mm 0.0 mm 1011.4 hPa, gleichbleibend
20.07.2019 - 17:3519.9 °C91%1 km/h 5 km/h NW0.0 mm 0.0 mm 1011.4 hPa, langsam steigend
20.07.2019 - 17:3420.0 °C91%1 km/h 0 km/h W0.0 mm 0.0 mm 1011.3 hPa, gleichbleibend
20.07.2019 - 17:3320.1 °C91%1 km/h 0 km/h W0.0 mm 0.0 mm 1011.2 hPa, gleichbleibend
20.07.2019 - 17:3220.1 °C91%1 km/h 0 km/h W0.0 mm 0.0 mm 1011.2 hPa, langsam steigend
20.07.2019 - 17:3120.2 °C91%1 km/h 3 km/h W0.0 mm 0.0 mm 1011.1 hPa, gleichbleibend
20.07.2019 - 17:3020.4 °C91%1 km/h 1 km/h W-SW0.0 mm 0.0 mm 1011.1 hPa, langsam steigend
20.07.2019 - 17:2920.4 °C91%1 km/h 8 km/h SW0.0 mm 0.0 mm 1011.0 hPa, gleichbleibend
20.07.2019 - 17:2820.6 °C91%1 km/h 19 km/h W0.0 mm 0.0 mm 1011.0 hPa, langsam steigend
20.07.2019 - 17:2720.6 °C91%1 km/h 1 km/h SW0.0 mm 0.0 mm 1010.9 hPa, langsam steigend
20.07.2019 - 17:2620.7 °C91%1 km/h 11 km/h SW0.0 mm 0.0 mm 1010.7 hPa, langsam steigend
20.07.2019 - 17:2520.8 °C92%1 km/h 7 km/h NW0.0 mm 0.0 mm 1010.5 hPa, langsam steigend
20.07.2019 - 17:2420.8 °C92%0 km/h 13 km/h N-NW0.0 mm 0.0 mm 1010.4 hPa, langsam steigend
20.07.2019 - 17:2320.8 °C92%0 km/h 10 km/h NW0.0 mm 0.0 mm 1010.2 hPa, gleichbleibend
20.07.2019 - 17:2220.8 °C92%0 km/h 0 km/h NO0.0 mm 0.0 mm 1010.2 hPa, langsam steigend
20.07.2019 - 17:2120.8 °C92%0 km/h 0 km/h NO0.0 mm 0.0 mm 1010.1 hPa, langsam steigend
20.07.2019 - 17:2020.8 °C92%0 km/h 0 km/h NO0.0 mm 0.0 mm 1010.0 hPa, langsam fallend
20.07.2019 - 17:1920.8 °C91%0 km/h 0 km/h NO0.0 mm 0.0 mm 1010.1 hPa, gleichbleibend
20.07.2019 - 17:1820.8 °C91%0 km/h 0 km/h NO0.0 mm 0.0 mm 1010.1 hPa, langsam steigend
20.07.2019 - 17:1720.8 °C91%0 km/h 0 km/h O-SO0.0 mm 0.0 mm 1010.0 hPa, langsam steigend
20.07.2019 - 17:1620.8 °C91%0 km/h 0 km/h O-SO0.0 mm 0.0 mm 1009.9 hPa, langsam fallend
20.07.2019 - 17:1520.8 °C91%0 km/h 0 km/h O-SO0.0 mm 0.0 mm 1010.0 hPa, langsam steigend
20.07.2019 - 17:1420.8 °C91%0 km/h 0 km/h O-SO0.0 mm 0.0 mm 1009.9 hPa, gleichbleibend
20.07.2019 - 17:1320.8 °C91%0 km/h 5 km/h SO0.0 mm 0.0 mm 1009.9 hPa, langsam fallend
20.07.2019 - 17:1220.8 °C91%0 km/h 0 km/h O-NO0.0 mm 0.0 mm 1010.0 hPa, langsam steigend
20.07.2019 - 17:1120.8 °C91%0 km/h 0 km/h NO0.0 mm 0.0 mm 1009.9 hPa, gleichbleibend
20.07.2019 - 17:1020.8 °C91%0 km/h 0 km/h NO0.0 mm 0.0 mm 1009.9 hPa, gleichbleibend
20.07.2019 - 17:0920.8 °C91%0 km/h 0 km/h NO0.0 mm 0.0 mm 1009.9 hPa, gleichbleibend
20.07.2019 - 17:0820.8 °C91%0 km/h 0 km/h O-NO0.0 mm 0.0 mm 1009.9 hPa, langsam fallend
20.07.2019 - 17:0720.8 °C90%0 km/h 0 km/h O-NO0.0 mm 0.0 mm 1010.0 hPa, gleichbleibend
20.07.2019 - 17:0620.9 °C90%0 km/h 0 km/h NO0.0 mm 0.0 mm 1010.0 hPa, gleichbleibend
20.07.2019 - 17:0520.9 °C90%0 km/h 0 km/h NO0.0 mm 0.0 mm 1010.0 hPa, gleichbleibend
20.07.2019 - 17:0420.9 °C90%0 km/h 0 km/h NO0.0 mm 0.0 mm 1010.0 hPa, langsam fallend
20.07.2019 - 17:0320.9 °C90%0 km/h 0 km/h NO0.0 mm 0.0 mm 1010.1 hPa, gleichbleibend
20.07.2019 - 17:0221.0 °C90%0 km/h 1 km/h N-NO0.0 mm 0.0 mm 1010.1 hPa, langsam fallend
20.07.2019 - 17:0121.1 °C90%0 km/h 3 km/h N-NO0.0 mm 0.0 mm 1010.2 hPa, langsam steigend
20.07.2019 - 17:0021.1 °C90%0 km/h 0 km/h NO0.0 mm 0.0 mm 1010.1 hPa, gleichbleibend
20.07.2019 - 16:5921.1 °C90%0 km/h 0 km/h NO0.0 mm 0.0 mm 1010.1 hPa, gleichbleibend
20.07.2019 - 16:5821.1 °C90%0 km/h 0 km/h NO0.0 mm 0.0 mm 1010.1 hPa, langsam fallend
20.07.2019 - 16:5721.1 °C90%0 km/h 0 km/h NO0.0 mm 0.0 mm 1010.2 hPa, langsam steigend
20.07.2019 - 16:5621.2 °C90%0 km/h 0 km/h N-NO0.0 mm 0.0 mm 1010.1 hPa, gleichbleibend
20.07.2019 - 16:5521.2 °C90%0 km/h 0 km/h N-NO0.0 mm 0.0 mm 1010.1 hPa, gleichbleibend
20.07.2019 - 16:5421.2 °C90%1 km/h 3 km/h N-NO0.0 mm 0.0 mm 1010.1 hPa, langsam steigend
20.07.2019 - 16:5321.3 °C90%1 km/h 5 km/h N-NW0.0 mm 0.0 mm 1010.0 hPa, langsam steigend
20.07.2019 - 16:5221.3 °C90%1 km/h 5 km/h N-NO0.0 mm 0.0 mm 1009.9 hPa, gleichbleibend
20.07.2019 - 16:5121.3 °C90%1 km/h 10 km/h O-NO0.0 mm 0.0 mm 1009.9 hPa, gleichbleibend
20.07.2019 - 16:5021.3 °C90%1 km/h 7 km/h O0.0 mm 0.0 mm 1009.9 hPa, langsam steigend
20.07.2019 - 16:4921.3 °C90%1 km/h 1 km/h O0.0 mm 0.0 mm 1009.8 hPa, gleichbleibend
20.07.2019 - 16:4821.3 °C90%1 km/h 0 km/h O-SO0.0 mm 0.8 mm 1009.8 hPa, langsam fallend